Wind_Speed
3 3 5 6 7 7 7 6 5 5 4 5 5 6 6 6 7 7 8 9 10 10 10 10 9 9 8 8 8 8 8 8 7 7 7 7 7 7 7 6 6 6 6
3 4 5 7 7 7 7 7 6 6 5 5 6 6 6 7 7 7 8 9 9 9 10 9 8 8 8 8 7 7 7 7 7 7 7 7 7 7 6 6 6 6 6
4 5 6 8 8 8 8 7 7 7 7 6 7 7 7 8 8 8 8 8 9 9 8 8 7 7 7 7 7 7 6 7 7 7 7 6 6 6 6 6 6 6 7
5 6 7 8 8 8 8 8 8 8 8 8 8 8 8 9 9 9 8 8 8 7 7 6 6 6 6 6 6 6 5 6 6 6 7 7 6 6 6 6 6 7 7
7 7 8 9 9 9 9 9 9 9 9 9 9 9 10 10 10 9 9 8 7 6 6 6 6 6 6 6 5 5 5 5 6 6 6 7 7 6 6 6 7 7 7
8 9 10 10 10 10 10 10 10 10 10 10 10 11 11 10 10 9 9 8 7 6 6 6 6 6 6 6 5 5 5 5 5 6 6 6 7 6 6 7 7 8 8
10 10 10 10 10 10 10 10 10 10 10 11 11 11 11 11 11 10 9 8 7 6 6 6 6 6 6 6 6 5 5 5 6 6 7 7 7 7 7 7 7 8 8
11 11 10 11 11 10 10 10 11 11 11 11 12 12 12 12 11 10 9 8 8 7 7 6 6 6 6 6 6 6 6 6 6 6 7 7 7 7 7 8 8 9 9
12 11 10 10 10 10 10 11 11 11 11 12 12 12 12 12 11 10 9 9 8 8 7 6 6 6 6 6 6 7 7 6 6 6 7 7 8 8 9 9 9 9 9
11 11 10 10 10 10 10 10 11 11 12 12 12 12 12 12 11 11 10 9 9 8 8 7 7 6 7 7 7 7 7 7 7 8 8 8 9 10 10 11 11 11 11
12 11 10 10 10 11 11 12 11 12 12 12 13 13 13 12 12 11 11 10 10 9 9 8 8 8 8 7 7 8 8 8 9 9 10 10 11 12 12 13 13 13 13
13 11 10 11 11 11 11 12 13 13 13 13 13 13 13 13 13 12 12 11 11 11 10 10 10 9 9 9 9 9 10 10 11 12 12 13 14 14 14 14 15 15 15
14 12 11 11 11 11 12 13 13 14 14 14 14 14 14 14 14 13 13 13 13 12 12 12 12 11 11 11 11 11 11 12 13 14 15 15 16 17 16 16 17 18 18
15 14 13 14 13 12 13 13 13 14 16 15 15 15 15 15 15 15 15 15 15 14 14 13 13 13 13 13 13 13 14 14 15 15 16 17 18 19 20 20 20 20 20
16 16 16 16 15 14 14 14 14 14 15 17 16 16 17 17 17 16 16 17 16 16 15 15 15 15 14 15 15 15 16 16 17 18 19 20 21 21 22 22 22 22 23
16 16 16 16 16 16 16 15 16 16 16 18 18 18 18 19 19 18 18 18 17 17 16 16 17 16 16 16 17 17 17 19 19 21 22 22 23 23 23 24 24 24 24
18 17 16 15 17 18 18 19 18 19 19 19 20 20 20 20 21 20 20 19 19 18 18 18 18 18 18 19 19 20 20 21 21 22 23 24 24 25 25 25 25 25 26
19 18 18 17 18 18 20 21 20 21 21 21 22 22 22 22 22 22 21 21 20 20 21 21 20 20 20 21 21 22 22 22 23 24 24 25 25 26 27 26 26 27 28
22 21 21 21 21 20 21 23 22 23 23 24 24 24 24 25 24 24 23 23 22 22 22 23 22 22 22 22 22 22 23 24 25 25 25 25 25 26 27 27 28 29 29
23 23 22 22 22 23 24 24 25 26 26 26 26 27 26 26 26 26 26 25 25 24 24 23 23 23 23 23 23 23 24 25 26 26 26 26 26 27 27 28 28 29 31
24 24 24 24 24 24 25 25 25 27 29 29 28 28 28 27 28 28 27 27 26 26 26 25 25 24 24 24 24 25 26 26 27 27 27 27 27 27 28 29 29 31 32
25 25 26 25 25 25 26 26 27 28 28 28 29 27 27 28 28 28 27 27 27 27 26 27 27 27 27 27 27 27 27 27 28 28 28 29 29 30 31 31 33 34 35
26 26 26 26 26 26 26 27 28 28 29 30 30 30 29 28 26 27 27 25 25 25 25 25 26 26 28 28 27 28 28 29 30 30 31 31 32 33 34 35 36 37 38
27 26 27 27 27 27 27 27 27 28 26 26 27 28 28 27 27 27 26 26 26 25 25 26 27 27 27 28 28 28 30 31 32 32 33 34 34 36 37 38 39 39 40
27 27 27 27 27 26 25 26 25 25 24 25 26 26 26 27 27 27 26 26 26 26 26 27 27 28 29 29 30 31 32 33 34 35 36 37 38 38 40 41 42 42 43
27 27 27 27 27 26 26 25 24 22 22 23 25 26 26 27 28 28 27 27 28 29 30 30 29 30 31 32 32 34 35 36 37 38 39 39 40 41 42 43 44 45 45
Wind_Direction
218 231 252 256 256 253 254 256 256 257 261 269 279 289 296 302 308 314 317 318 318 319 320 321 321 323 324 326 328 329 329 329 331 333 332 331 332 333 329 325 320 314 309
229 229 245 249 253 255 257 260 261 259 259 264 273 282 288 294 299 303 305 307 310 312 314 316 318 320 321 324 327 327 327 328 330 331 333 333 332 331 327 325 323 318 315
232 236 240 245 249 254 256 261 260 259 261 264 267 273 279 282 287 291 294 297 302 306 309 312 315 317 320 324 326 324 324 326 328 328 329 328 328 326 323 322 321 317 317
220 229 234 239 246 250 253 257 260 261 262 264 266 269 272 274 280 285 287 290 296 302 305 307 311 314 315 317 320 320 320 323 324 325 325 325 324 322 318 318 318 317 316
217 223 233 240 245 246 250 254 257 260 261 260 263 267 268 270 276 281 283 286 290 296 301 302 305 308 307 308 309 309 314 319 321 323 322 319 319 316 312 314 317 317 316
220 225 230 237 242 245 249 250 254 256 257 258 260 263 266 269 272 275 277 281 283 287 293 295 298 300 298 298 297 299 304 310 315 317 315 314 314 314 312 311 316 319 317
217 223 228 234 238 244 248 250 251 252 255 255 256 260 264 268 270 271 271 274 276 279 284 287 290 290 288 289 288 289 296 304 310 312 313 311 310 312 314 313 317 319 317
218 223 227 232 237 243 249 250 248 250 254 254 255 256 258 262 264 264 264 265 267 271 274 278 280 280 279 281 282 285 292 297 302 310 313 312 313 315 315 315 316 316 314
220 222 227 232 236 242 247 250 250 250 251 253 253 253 253 254 255 255 256 255 260 262 264 267 270 272 271 273 277 281 287 293 299 306 310 307 309 312 312 312 310 309 307
223 222 225 235 237 239 244 250 252 250 248 248 249 248 247 247 246 247 248 249 252 255 256 259 262 263 263 265 269 275 282 289 295 300 306 304 303 303 304 304 303 301 299
232 224 227 238 244 242 244 247 250 250 248 246 244 243 241 240 240 241 243 244 246 248 250 254 254 254 256 258 263 270 278 285 289 293 297 298 297 298 298 299 297 294 293
242 239 235 239 245 247 247 246 248 248 245 242 240 238 237 236 236 237 239 239 240 242 245 249 249 250 252 256 261 267 273 280 284 287 289 290 291 293 294 294 294 291 289
251 246 239 240 248 251 248 246 246 245 243 241 239 238 237 235 235 237 237 236 236 239 243 247 248 250 253 257 261 265 270 276 281 286 288 288 289 288 288 288 288 289 288
253 249 250 250 251 249 249 248 249 248 243 240 239 238 236 234 236 238 238 237 238 239 242 244 248 252 255 257 261 265 271 277 282 286 287 289 289 287 286 285 284 285 286
251 246 245 243 240 244 245 248 251 254 248 240 238 239 238 236 238 237 237 238 239 240 242 245 248 252 256 261 265 269 274 280 283 284 285 288 288 287 286 284 283 283 283
254 247 242 240 242 245 244 245 247 249 245 241 237 238 239 238 237 236 238 240 240 241 241 244 249 253 258 263 267 271 275 279 282 283 285 286 286 285 283 283 282 283 283
256 249 244 248 249 248 246 245 246 245 244 243 240 238 239 239 237 237 238 242 241 239 240 244 249 255 260 264 269 272 275 279 281 283 284 285 284 283 282 281 280 281 282
259 256 254 254 252 252 250 248 248 247 245 246 243 239 239 239 238 238 239 242 242 242 244 248 251 257 262 266 269 271 275 278 279 281 285 286 285 284 282 280 279 279 279
258 259 260 259 256 255 253 249 247 248 247 247 243 237 238 239 238 238 240 241 243 243 246 250 253 258 263 266 268 270 273 276 277 280 283 284 285 284 282 279 279 278 279
259 261 259 262 264 263 258 256 252 251 249 249 243 239 239 240 239 239 239 240 241 245 248 250 255 259 262 265 267 269 273 275 277 279 281 283 284 284 282 281 281 279 278
256 258 260 264 268 268 265 258 257 256 252 251 246 244 242 243 241 239 239 242 244 245 247 249 256 260 263 265 267 271 274 276 278 278 280 282 282 282 282 282 282 281 280
254 257 259 263 264 266 264 262 261 259 257 250 246 244 246 247 245 244 243 246 247 248 250 253 257 260 263 266 268 272 274 277 278 278 280 281 282 282 283 282 281 282 282
255 259 262 265 265 266 266 266 262 261 262 251 244 244 247 246 246 244 244 247 248 252 256 259 262 264 267 268 270 273 275 279 281 280 280 281 283 283 284 285 284 284 284
255 257 261 264 264 265 266 270 265 261 258 246 242 246 247 244 245 246 247 248 253 257 261 264 264 266 271 272 274 277 278 280 281 282 282 283 284 284 285 285 286 285 285
254 256 259 261 265 267 268 270 270 265 256 246 246 248 249 250 250 249 250 252 255 258 262 264 265 268 272 274 275 277 279 281 283 283 285 285 286 285 285 285 286 285 286
255 256 259 261 265 267 269 271 270 266 260 252 249 250 253 252 251 251 252 255 259 261 263 264 267 271 273 275 277 279 281 283 283 285 286 286 287 287 286 286 286 286 286
Height
5883 5884 5885 5887 5887 5888 5889 5889 5890 5891 5892 5893 5894 5895 5896 5897 5897 5898 5898 5899 5899 5899 5899 5899 5898 5898 5898 5897 5897 5897 5896 5896 5896 5895 5895 5895 5894 5894 5893 5893 5893 5892 5892
5882 5882 5884 5885 5886 5886 5887 5888 5889 5890 5891 5892 5893 5894 5895 5896 5896 5897 5897 5898 5898 5898 5898 5898 5897 5897 5897 5897 5896 5896 5896 5895 5895 5895 5894 5894 5894 5893 5893 5893 5892 5892 5892
5880 5881 5882 5883 5884 5885 5885 5886 5887 5888 5889 5890 5891 5893 5894 5895 5895 5896 5896 5896 5897 5897 5897 5897 5896 5896 5896 5896 5896 5896 5895 5895 5894 5894 5894 5893 5893 5893 5893 5892 5892 5891 5891
5878 5879 5880 5881 5882 5883 5883 5884 5885 5886 5887 5888 5889 5891 5892 5893 5894 5894 5894 5895 5895 5895 5895 5895 5895 5895 5895 5895 5895 5895 5895 5894 5894 5894 5893 5893 5893 5892 5892 5891 5891 5890 5890
5876 5877 5878 5879 5879 5880 5881 5882 5883 5884 5885 5886 5887 5888 5890 5890 5891 5892 5892 5893 5893 5894 5894 5894 5894 5894 5894 5894 5894 5894 5894 5894 5894 5893 5893 5892 5892 5891 5891 5890 5890 5889 5889
5874 5874 5875 5876 5877 5878 5879 5880 5881 5882 5883 5884 5885 5886 5887 5888 5889 5890 5890 5891 5891 5892 5892 5893 5893 5893 5893 5893 5893 5893 5893 5893 5893 5892 5892 5891 5891 5890 5890 5889 5889 5888 5888
5871 5872 5873 5874 5875 5876 5877 5877 5878 5879 5880 5881 5882 5884 5885 5886 5887 5887 5888 5888 5889 5890 5890 5891 5891 5892 5892 5892 5892 5892 5892 5892 5892 5892 5891 5891 5890 5889 5889 5888 5887 5887 5886
5869 5870 5870 5871 5872 5873 5874 5875 5876 5877 5878 5879 5880 5881 5882 5884 5885 5885 5886 5886 5887 5888 5888 5889 5890 5890 5891 5891 5891 5891 5891 5891 5891 5890 5890 5889 5889 5888 5887 5887 5886 5885 5885
5865 5866 5868 5869 5870 5871 5872 5873 5874 5874 5875 5876 5878 5879 5880 5881 5882 5883 5884 5884 5885 5886 5886 5887 5888 5889 5889 5889 5889 5889 5889 5889 5889 5888 5888 5888 5887 5887 5886 5885 5885 5884 5884
5863 5864 5865 5866 5867 5868 5870 5871 5871 5872 5873 5874 5875 5876 5878 5879 5880 5881 5882 5882 5883 5884 5884 5885 5886 5887 5887 5888 5888 5887 5887 5887 5887 5887 5886 5886 5885 5885 5884 5883 5883 5882 5882
5860 5860 5861 5863 5865 5866 5867 5868 5869 5870 5871 5871 5873 5874 5875 5876 5877 5878 5879 5880 5881 5881 5882 5883 5884 5884 5885 5885 5886 5886 5885 5885 5885 5885 5884 5884 5883 5883 5882 5881 5881 5880 5879
5858 5858 5858 5860 5862 5863 5864 5865 5866 5867 5868 5869 5870 5871 5872 5874 5875 5876 5877 5877 5878 5879 5880 5880 5881 5882 5882 5883 5883 5883 5883 5883 5882 5882 5882 5881 5881 5880 5880 5879 5878 5877 5877
5855 5856 5855 5857 5859 5860 5861 5862 5863 5864 5866 5866 5867 5869 5870 5871 5872 5873 5874 5875 5875 5876 5877 5878 5878 5879 5879 5880 5880 5880 5880 5880 5879 5879 5878 5878 5877 5877 5876 5875 5875 5874 5873
5852 5852 5853 5854 5855 5857 5857 5859 5860 5861 5863 5864 5865 5866 5867 5868 5869 5870 5871 5872 5872 5873 5874 5874 5875 5876 5876 5876 5877 5877 5877 5876 5876 5875 5875 5874 5873 5873 5872 5871 5870 5870 5869
5848 5848 5849 5850 5851 5853 5854 5855 5857 5858 5859 5860 5862 5863 5864 5864 5865 5866 5867 5868 5869 5870 5871 5871 5872 5872 5872 5873 5873 5873 5873 5873 5872 5871 5871 5870 5869 5868 5867 5867 5866 5865 5865
5844 5844 5845 5846 5848 5849 5850 5851 5853 5854 5855 5857 5858 5859 5860 5861 5861 5862 5864 5865 5865 5866 5867 5867 5868 5868 5869 5869 5869 5869 5868 5868 5867 5867 5866 5865 5864 5863 5862 5862 5861 5860 5860
5839 5840 5841 5842 5844 5845 5846 5847 5848 5850 5851 5852 5853 5854 5856 5856 5857 5858 5860 5861 5861 5862 5863 5863 5863 5864 5864 5864 5864 5864 5864 5863 5862 5861 5860 5859 5858 5857 5857 5856 5855 5855 5854
5835 5836 5837 5838 5839 5840 5842 5843 5844 5845 5846 5848 5848 5849 5851 5852 5853 5854 5855 5856 5857 5857 5858 5858 5859 5859 5859 5859 5859 5859 5858 5858 5857 5856 5855 5854 5853 5852 5851 5850 5850 5849 5848
5831 5832 5833 5834 5835 5835 5837 5838 5839 5840 5841 5842 5843 5844 5845 5847 5847 5848 5850 5851 5851 5852 5853 5853 5854 5854 5854 5854 5853 5853 5853 5852 5851 5850 5849 5848 5847 5846 5845 5844 5844 5843 5842
5826 5827 5828 5829 5830 5830 5831 5832 5833 5835 5835 5835 5836 5838 5840 5841 5842 5842 5844 5845 5846 5847 5847 5848 5848 5848 5848 5848 5848 5847 5847 5846 5845 5844 5843 5842 5841 5840 5839 5838 5837 5836 5835
5821 5822 5823 5823 5823 5824 5825 5826 5827 5828 5829 5830 5831 5832 5834 5835 5836 5836 5838 5839 5840 5841 5842 5842 5843 5843 5842 5842 5842 5841 5841 5840 5839 5838 5837 5836 5835 5833 5832 5831 5830 5829 5827
5815 5816 5817 5818 5818 5818 5819 5819 5820 5821 5821 5822 5824 5825 5827 5828 5829 5831 5832 5833 5834 5835 5836 5837 5837 5836 5836 5836 5836 5835 5834 5834 5833 5832 5831 5830 5828 5827 5825 5824 5822 5821 5819
5809 5810 5811 5812 5813 5813 5813 5813 5813 5813 5813 5815 5817 5819 5820 5822 5823 5824 5826 5827 5828 5829 5830 5830 5830 5830 5830 5830 5829 5829 5828 5827 5826 5825 5824 5822 5821 5819 5818 5816 5814 5812 5810
5803 5804 5805 5806 5807 5807 5806 5807 5806 5806 5806 5807 5810 5812 5813 5814 5816 5817 5819 5820 5822 5823 5824 5824 5824 5824 5823 5823 5822 5822 5821 5820 5819 5818 5816 5814 5813 5811 5809 5807 5805 5803 5800
5797 5798 5800 5801 5801 5801 5800 5801 5801 5800 5800 5801 5803 5806 5807 5808 5810 5811 5813 5814 5815 5816 5817 5817 5817 5817 5817 5816 5815 5814 5813 5812 5811 5809 5808 5806 5804 5802 5800 5798 5796 5793 5790
5791 5792 5793 5794 5795 5795 5795 5794 5794 5794 5794 5796 5798 5799 5800 5801 5803 5804 5806 5807 5808 5809 5810 5810 5810 5809 5809 5808 5807 5806 5805 5803 5802 5800 5798 5796 5794 5792 5790 5788 5785 5782 5779